Dewpoint
65 65 65 65 64 65 65 63 64 63 63 64 65 64 63 64 64 61 62 61 61 62 60 62 63 63 63 64 65 66 67 66 66 64 64 63 62 63 63 63 62 62 61 61 61 60 60 60 59 59 59 59 59 58 58 58 58 57 57 56 56 55 54 53 52 52 53 54 54 53 51 52 52 51 51 51 51 49 48 51 51 50 50 52 52
64 64 63 65 65 66 66 65 63 62 63 64 64 63 63 62 62 61 58 60 59 61 61 62 62 63 63 64 65 66 67 66 65 64 64 64 64 64 64 63 63 62 62 61 61 60 59 60 59 59 59 59 59 59 59 59 58 58 57 57 56 56 56 55 53 52 51 51 52 53 53 52 52 51 51 51 51 51 50 47 51 51 50 51 51
64 65 65 64 66 66 65 65 64 64 63 63 65 65 64 62 61 59 59 58 58 61 61 62 62 61 62 64 66 67 66 67 65 63 63 64 63 64 61 63 63 62 62 61 60 61 60 59 59 59 59 59 59 59 59 59 58 57 57 57 57 56 56 55 55 54 53 52 50 50 50 51 52 52 51 51 51 51 51 49 50 51 50 50 51
65 65 65 65 65 65 65 65 64 64 64 63 64 64 62 59 58 60 61 60 60 62 63 61 62 60 61 62 64 66 65 66 65 63 63 64 63 62 63 62 63 62 62 62 61 61 60 59 59 59 59 59 59 59 59 60 58 58 58 58 57 56 56 55 55 55 55 54 53 52 51 50 50 50 52 51 52 51 51 51 51 51 51 51 51
65 66 65 65 65 66 65 65 65 64 65 65 64 65 62 59 60 59 61 61 61 63 61 63 63 62 62 62 65 64 64 65 66 65 63 63 63 61 63 62 61 62 62 62 61 61 61 60 59 59 59 59 59 59 59 60 59 58 57 56 55 55 55 55 53 52 54 55 54 54 53 52 51 50 50 51 50 51 51 51 52 51 51 51 50
65 66 65 65 66 66 65 64 64 65 65 65 62 63 62 60 59 58 60 59 61 63 61 62 61 61 63 63 65 66 66 66 65 65 64 63 63 64 62 60 59 60 59 62 61 61 61 60 60 59 59 59 59 59 59 59 58 58 56 56 56 56 56 56 55 55 53 52 54 54 54 54 53 52 51 52 50 50 51 50 50 51 51 51 51
65 65 66 66 66 66 65 64 65 65 64 64 62 63 64 62 61 59 60 57 58 61 61 62 62 63 65 64 64 63 66 66 66 65 64 65 65 63 64 62 60 60 60 57 62 61 61 61 60 60 59 59 59 59 60 60 59 57 56 56 56 56 56 54 53 53 54 54 53 53 55 55 54 53 52 52 50 50 51 51 50 51 51 51 51
65 65 66 66 64 65 65 65 65 65 64 65 64 62 64 63 61 59 59 56 56 59 61 61 62 62 64 65 63 65 65 65 66 63 63 64 63 65 65 63 61 59 60 59 60 61 61 61 61 60 60 60 59 59 60 60 59 58 58 57 57 56 54 53 52 52 52 52 53 54 53 54 55 54 53 53 52 51 51 51 50 51 51 50 51
65 65 66 66 65 65 64 66 66 65 65 64 62 62 63 64 63 61 62 58 56 59 57 60 62 63 62 65 64 64 65 65 64 66 63 64 64 63 64 64 62 59 61 59 60 60 62 62 61 61 60 60 60 60 60 60 60 58 57 57 58 57 55 54 52 52 52 52 51 51 53 53 55 55 54 53 53 53 51 50 50 50 51 50 51
65 65 66 66 65 65 65 66 66 65 65 64 63 63 63 64 64 64 62 60 57 59 59 59 60 62 62 62 63 62 64 65 64 64 65 63 64 63 63 64 63 59 60 61 60 60 60 61 62 61 60 61 61 60 60 60 60 59 58 59 58 57 57 56 55 53 52 52 51 51 51 53 53 54 55 54 53 53 52 51 51 50 50 50 50
64 65 66 65 65 65 65 66 66 66 65 64 64 64 64 64 64 64 64 61 59 60 59 59 59 60 59 62 64 63 64 64 65 64 64 64 63 62 61 64 63 62 61 61 59 60 60 60 57 58 59 61 61 60 60 60 60 59 58 59 59 57 56 56 56 54 52 51 51 51 51 51 52 52 54 55 54 53 53 52 52 51 51 50 50
64 65 66 65 65 64 65 65 66 66 66 65 64 64 65 65 64 65 64 62 61 59 59 60 60 61 61 62 64 64 62 64 64 63 64 65 65 64 63 62 64 64 62 61 60 59 60 59 59 56 57 59 61 61 61 60 60 60 59 59 60 59 57 57 56 55 53 51 51 51 51 51 52 52 53 54 55 54 54 53 52 52 51 50 49
63 64 65 66 66 65 65 65 66 66 66 66 66 65 65 65 63 64 64 62 61 60 60 61 60 61 63 63 64 64 64 64 63 63 62 64 64 64 64 64 63 64 63 63 60 59 60 59 59 59 57 57 61 61 61 61 60 60 60 60 60 60 60 59 58 55 54 52 51 51 51 51 51 52 52 53 54 55 55 54 53 53 52 50 50
64 64 65 66 67 66 65 65 66 66 66 66 66 66 66 65 65 62 61 61 61 59 61 60 58 58 58 59 61 63 64 64 61 61 62 62 64 65 66 64 62 63 64 63 61 59 58 59 58 58 57 57 58 59 58 59 59 60 60 60 61 61 60 60 60 58 55 54 54 53 52 52 52 51 52 52 53 54 55 55 54 54 53 52 50
63 64 65 65 66 66 66 66 66 66 66 66 66 66 65 65 65 62 60 61 62 62 62 61 55 57 59 59 56 58 62 61 62 61 62 63 63 63 62 62 61 61 62 63 62 61 58 58 57 58 59 58 56 58 59 58 57 59 60 61 60 61 61 61 60 60 58 56 54 54 54 53 53 52 52 52 52 53 53 54 54 54 54 52 52
61 62 63 64 66 66 65 66 66 67 66 66 66 65 66 65 64 63 62 60 59 60 61 63 55 58 56 56 57 57 55 59 60 60 60 61 62 61 61 60 60 61 61 61 60 61 61 58 57 58 59 59 57 56 57 58 59 61 61 60 61 61 62 62 61 61 60 58 56 56 55 54 54 54 53 52 53 52 53 53 53 53 54 53 52
61 62 62 63 64 64 64 66 67 67 66 65 65 65 65 64 64 64 63 61 59 61 62 62 62 61 58 56 56 56 56 56 59 61 61 59 59 60 60 60 59 59 59 59 59 60 60 58 59 59 60 60 59 58 57 57 58 60 60 61 61 60 61 62 61 61 61 60 58 57 56 56 55 55 54 54 54 53 53 53 53 53 53 53 52
61 61 60 62 64 64 65 65 66 66 66 64 64 64 65 64 64 64 63 63 62 60 61 63 62 64 63 60 59 55 56 56 57 56 62 61 60 58 59 60 60 60 60 59 58 58 60 61 61 60 60 60 59 58 57 57 57 57 58 58 62 61 60 61 62 62 61 60 59 58 58 57 56 55 55 55 55 54 54 54 53 53 53 53 53
62 61 61 61 63 64 65 66 66 66 66 65 64 65 64 63 63 64 64 63 63 61 61 61 63 64 62 63 63 64 60 60 58 57 56 60 59 58 58 57 59 59 58 58 58 58 60 60 60 58 59 60 59 59 59 58 57 58 60 60 62 62 61 61 61 62 62 61 60 59 58 58 58 57 56 56 55 55 55 55 54 54 53 52 52
63 62 62 62 63 63 65 66 65 65 64 64 64 65 65 64 64 64 65 64 65 62 61 61 60 61 63 63 63 63 62 62 60 58 57 56 60 59 59 60 60 60 59 57 56 57 59 60 58 57 58 58 59 59 59 57 58 58 58 60 61 62 62 61 60 60 60 60 60 58 58 58 58 58 57 56 55 55 54 54 55 54 54 53 52
62 63 63 62 62 62 63 64 65 64 63 63 64 64 65 65 65 65 65 64 66 65 63 62 62 61 63 63 62 61 61 62 61 61 59 58 57 59 61 61 62 61 61 60 58 59 58 59 59 57 59 59 59 59 58 59 58 59 59 59 61 61 62 62 61 59 59 60 60 59 58 57 58 59 59 57 56 55 54 54 54 55 54 53 53
64 63 64 62 63 63 62 63 63 63 63 63 65 65 66 66 66 66 66 66 66 65 65 63 64 63 62 63 62 62 61 60 61 62 62 61 57 55 57 56 60 61 62 61 60 58 58 59 60 58 58 58 59 58 59 59 59 58 58 59 61 61 62 62 61 60 59 59 60 59 58 58 58 59 60 59 57 56 55 54 54 55 55 54 53
65 64 64 64 64 63 63 62 63 64 63 64 64 65 66 66 66 67 66 66 65 65 66 66 64 63 63 62 61 61 61 60 61 61 62 61 59 57 59 56 55 57 61 61 60 58 57 58 58 59 59 58 58 58 59 59 59 58 58 58 60 60 61 61 60 59 58 59 59 59 58 58 57 58 60 60 59 57 55 54 53 54 55 54 54
65 65 64 64 64 64 64 64 63 64 64 64 64 64 65 65 66 66 66 67 65 64 65 65 65 64 65 63 62 63 62 62 61 62 62 61 61 59 57 57 57 56 55 61 60 58 57 56 56 58 58 57 57 57 58 59 58 59 59 58 59 60 61 62 60 59 58 58 59 59 59 58 57 57 58 59 59 58 55 53 52 52 53 54 54
66 65 65 65 64 65 65 64 64 65 66 65 64 64 64 64 65 65 65 65 65 65 62 64 64 62 61 64 63 63 62 62 63 63 63 63 63 61 62 61 61 58 56 57 58 57 56 56 56 55 55 56 55 55 57 59 58 59 58 57 58 58 59 61 61 59 58 57 58 59 59 58 57 57 56 57 58 58 56 54 54 54 54 54 52
66 66 65 65 64 65 65 65 64 65 65 66 64 64 65 64 65 65 65 65 64 65 64 65 65 65 64 63 63 62 63 63 64 64 64 63 63 62 61 62 60 58 57 56 56 56 56 55 55 54 54 54 55 56 58 56 59 58 58 58 60 57 57 59 60 60 60 58 57 57 58 59 58 58 58 58 58 58 56 55 55 55 54 54 54
65 66 66 65 66 65 65 65 65 64 65 66 65 65 65 66 65 65 66 65 65 65 65 65 63 63 65 64 63 63 63 63 64 64 63 63 62 62 61 61 60 59 58 56 56 56 56 56 56 55 54 57 57 56 55 58 58 58 58 60 60 57 55 56 57 58 59 59 58 57 57 57 57 57 57 58 58 57 56 56 55 56 55 56 54
66 66 67 66 66 65 66 66 66 65 66 66 66 65 66 66 65 65 66 66 66 66 65 65 65 65 64 64 64 62 63 62 63 64 63 64 64 63 63 62 59 57 58 58 57 56 57 56 56 56 55 55 55 57 57 55 57 57 57 60 60 59 55 53 54 56 58 59 58 58 57 56 56 56 57 57 58 58 56 55 54 54 54 54 54
67 67 67 67 66 66 65 66 66 66 67 67 66 66 66 65 65 65 65 65 65 64 65 65 65 65 65 64 63 62 62 62 62 62 63 64 63 63 62 61 61 58 57 56 57 57 57 56 56 56 57 56 57 56 56 56 56 57 59 59 59 61 56 53 53 54 56 56 56 58 58 58 57 57 58 58 59 57 55 55 54 54 54 53 54
68 68 67 67 67 66 66 66 67 67 67 66 65 65 66 65 66 65 65 66 66 66 65 65 65 63 64 63 63 61 62 63 61 64 64 63 62 62 62 62 62 60 59 57 57 58 58 60 57 55 57 57 56 57 57 57 56 54 56 57 58 59 55 53 52 52 53 53 53 54 56 58 58 58 58 58 58 57 55 54 53 54 53 52 52
67 68 68 67 67 67 67 66 66 66 66 66 66 65 65 66 66 65 65 65 64 65 65 65 64 63 62 62 62 62 63 63 64 64 64 64 61 60 61 62 63 63 61 60 58 58 59 60 59 58 57 57 56 57 55 55 55 54 56 57 55 54 54 56 52 51 51 51 51 52 54 55 57 58 58 58 58 56 55 54 53 53 53 53 52
67 67 66 66 67 66 66 65 65 65 65 65 65 65 66 66 66 65 65 65 64 64 64 64 64 63 62 62 62 61 62 62 63 63 62 63 61 60 61 62 62 63 62 61 59 58 60 60 61 60 58 61 59 58 58 55 54 52 55 55 56 52 55 54 52 51 51 50 50 50 52 53 54 56 57 57 57 57 56 54 52 51 51 51 51
66 66 66 66 65 66 65 67 65 65 65 66 66 65 65 65 65 65 65 64 63 64 64 64 64 64 61 61 61 61 62 61 60 61 60 60 60 61 62 61 61 62 62 62 60 60 60 61 60 59 61 61 59 59 57 58 58 53 52 56 57 58 57 56 56 51 50 49 49 49 49 49 51 54 57 57 56 56 55 51 49 50 51 51 50
67 64 65 65 65 65 64 64 65 65 65 65 66 65 64 65 65 65 65 64 64 63 64 63 63 63 63 61 60 60 60 60 60 59 57 58 57 59 59 60 59 60 62 61 61 60 60 61 60 59 59 59 57 58 59 61 60 59 55 54 56 57 56 58 57 58 49 49 48 48 48 48 48 50 52 54 52 51 50 49 47 47 50 51 49
65 65 64 64 64 64 65 65 65 65 64 64 65 65 65 65 64 65 64 64 64 64 64 63 63 63 63 63 62 61 62 61 62 61 62 61 58 58 59 59 59 60 60 61 62 61 61 60 61 60 60 59 60 57 56 59 60 59 58 57 55 55 55 57 57 56 48 48 47 47 47 47 48 48 49 50 50 49 48 47 47 47 47 48 48
65 66 65 64 65 65 65 64 64 64 65 64 64 64 64 64 64 64 64 64 64 64 63 63 63 62 63 63 63 63 62 62 62 62 61 62 62 61 60 60 60 60 61 62 62 62 61 60 61 59 60 60 59 58 58 57 58 55 56 58 57 56 55 54 55 56 51 48 48 47 47 47 47 48 48 48 49 48 47 46 47 47 47 47 47
65 64 64 64 64 64 65 64 64 63 64 65 64 64 64 64 64 64 64 63 64 63 64 64 63 63 63 63 63 63 62 62 62 61 62 63 61 62 61 60 59 60 60 61 61 61 61 61 61 61 61 60 60 60 58 56 56 56 57 59 58 57 56 54 53 52 52 49 48 48 47 47 47 48 48 48 48 47 47 46 46 47 47 47 46
65 65 65 64 63 63 63 63 63 63 63 64 64 63 63 64 64 63 64 64 64 64 63 64 63 63 64 63 63 63 63 63 63 63 63 63 62 62 62 61 60 60 61 61 62 62 61 61 61 61 62 61 61 61 59 59 58 56 55 55 57 58 60 59 57 54 52 50 52 52 49 48 48 48 48 48 47 46 46 46 46 46 46 46 45
65 65 64 64 65 64 63 63 62 62 62 63 63 63 63 64 64 63 64 64 64 64 64 64 63 64 63 63 63 64 63 63 64 64 64 64 63 63 63 63 61 62 61 61 60 61 61 61 61 61 61 61 62 61 59 59 58 57 58 59 58 56 55 57 58 56 54 53 50 49 50 49 49 49 48 47 47 46 46 45 46 46 46 45 44
65 65 64 64 64 63 63 62 63 63 62 62 62 63 63 63 63 63 64 64 63 64 64 64 64 64 64 63 64 63 64 64 64 65 64 64 64 64 64 63 63 63 62 61 61 60 60 60 60 60 60 60 61 62 61 60 58 57 56 57 58 58 58 57 57 57 57 54 54 50 48 48 48 49 47 47 47 47 46 46 46 46 46 45 44
65 64 65 64 63 63 62 63 63 63 63 63 62 63 63 63 63 63 64 63 64 63 64 64 64 64 63 64 64 64 65 63 59 61 61 61 64 64 64 64 64 64 63 62 61 60 59 59 59 60 60 60 60 61 60 60 58 58 59 59 58 58 59 59 57 56 56 55 55 55 52 51 49 50 50 50 49 48 47 46 47 47 46 44 44
66 66 64 64 65 64 63 63 63 64 63 64 61 57 58 63 64 63 64 64 64 64 63 63 63 63 64 64 65 62 60 59 58 56 55 55 58 63 64 65 64 63 63 63 62 61 60 59 59 59 59 59 59 61 61 61 61 61 60 60 59 58 59 59 58 58 55 55 55 55 53 52 51 50 49 48 48 51 49 49 47 47 46 44 44
64 65 65 64 64 64 63 62 63 63 63 63 56 52 52 54 62 64 64 64 64 64 63 63 63 64 64 63 64 64 61 59 59 54 54 53 53 54 55 57 61 64 64 63 63 62 61 60 60 59 59 59 60 61 61 61 62 62 61 60 59 59 59 57 55 57 57 56 55 55 55 55 53 51 49 48 48 50 48 48 46 45 44 45 44
65 65 64 64 64 65 64 63 63 64 64 59 52 51 50 51 55 64 65 64 64 64 63 63 63 63 63 64 64 64 65 65 64 62 57 53 52 52 51 52 52 52 54 63 64 63 63 61 61 61 60 59 60 61 61 62 62 61 61 61 60 59 59 57 56 55 57 57 56 55 55 56 53 52 51 49 48 48 46 46 44 44 44 43 44
66 64 64 65 64 64 64 64 64 64 65 56 51 50 50 50 51 58 64 65 64 64 64 63 62 62 62 63 63 63 64 61 63 64 64 62 53 51 52 52 52 52 50 48 50 63 65 64 62 62 61 61 60 61 62 63 63 62 62 60 61 60 59 58 57 56 59 58 57 55 54 55 53 52 51 51 49 49 47 45 45 44 44 43 43
66 66 65 64 64 63 64 64 64 65 65 58 50 50 50 49 50 53 64 64 65 64 64 64 64 64 64 63 63 64 65 65 65 65 65 65 64 61 60 60 62 59 52 50 50 49 55 64 64 63 63 63 61 63 64 64 63 62 61 61 61 61 60 59 60 59 60 57 57 55 54 53 54 52 51 50 49 49 49 47 43 44 44 43 43
64 64 65 65 65 64 64 65 65 65 66 56 49 48 48 49 49 50 63 64 64 64 64 65 65 65 65 65 65 65 65 66 65 64 65 65 65 65 64 63 63 63 64 63 62 61 61 63 64 64 64 64 63 64 64 65 64 64 64 63 63 62 61 61 60 60 59 57 58 55 52 53 55 51 51 50 49 47 48 45 43 43 43 43 42
66 66 67 66 65 65 65 65 65 65 66 54 49 48 48 48 48 57 62 64 64 64 64 64 64 65 65 65 65 65 65 66 61 55 59 65 65 65 64 64 64 64 64 61 58 57 62 64 64 64 64 65 59 65 65 65 65 65 64 63 63 63 61 58 57 58 56 57 57 54 53 52 54 52 50 49 48 47 47 49 43 43 43 42 42
64 65 65 65 65 64 64 65 65 65 65 58 48 48 48 48 49 59 62 63 63 64 64 64 64 64 65 65 65 64 65 65 58 51 53 56 65 65 64 64 64 64 64 65 56 51 52 52 53 54 54 53 52 51 52 52 62 63 63 62 61 60 58 58 58 57 56 56 54 55 53 52 53 52 50 49 49 47 46 46 52 43 42 42 42
66 64 65 65 66 66 65 65 65 65 65 61 49 48 48 47 52 61 62 62 63 63 63 63 63 62 63 60 63 64 64 65 56 49 49 56 65 65 64 64 64 64 64 64 65 62 50 50 50 50 51 50 49 48 49 48 48 54 63 61 61 59 58 58 56 57 57 56 53 53 53 51 53 51 48 48 49 48 47 46 45 51 42 42 42
64 64 64 66 65 66 66 67 61 65 65 62 49 47 47 46 51 62 63 63 63 62 62 62 63 62 62 60 59 60 62 61 54 49 48 55 65 65 65 64 63 63 64 65 65 65 62 60 59 59 57 54 56 58 58 50 48 52 62 62 62 60 59 57 57 56 56 56 54 54 51 51 51 49 49 48 47 47 47 46 43 49 46 44 45